| time (UTC) | temp F | wind direction | speed MPH | gust MPH | rain 1hr in | rain 24hr in | rain mn in | humidity % | barometer mb |
| 20260510142004 | 59 | 359 | 6.0 | 15.0 | 0.00 | 0.00 | 0.00 | 64 | 1015.5 |
| 20260510141504 | 59 | 349 | 7.0 | 16.0 | 0.00 | 0.00 | 0.00 | 64 | 1015.6 |
| 20260510141004 | 59 | 21 | 8.0 | 17.0 | 0.00 | 0.00 | 0.00 | 64 | 1015.7 |
| 20260510140504 | 59 | 338 | 6.0 | 17.0 | 0.00 | 0.00 | 0.00 | 64 | 1015.7 |
| 20260510135005 | 59 | 343 | 7.0 | 20.0 | 0.00 | 0.00 | 0.00 | 64 | 1015.7 |
| 20260510134504 | 59 | 13 | 11.0 | 18.0 | 0.00 | 0.00 | 0.00 | 62 | 1015.8 |
| 20260510134004 | 59 | 346 | 7.0 | 16.0 | 0.00 | 0.00 | 0.00 | 62 | 1015.8 |
| 20260510133504 | 60 | 19 | 7.0 | 15.0 | 0.00 | 0.00 | 0.00 | 61 | 1015.8 |
| 20260510132504 | 60 | 358 | 8.0 | 18.0 | 0.00 | 0.00 | 0.00 | 61 | 1015.7 |
| 20260510131504 | 60 | 12 | 6.0 | 15.0 | 0.00 | 0.00 | 0.00 | 60 | 1015.7 |
| 20260510130004 | 61 | 23 | 9.0 | 20.0 | 0.00 | 0.00 | 0.00 | 60 | 1015.8 |
| 20260510125504 | 61 | 23 | 9.0 | 20.0 | 0.00 | 0.00 | 0.00 | 57 | 1015.8 |
| 20260510125004 | 61 | 17 | 7.0 | 20.0 | 0.00 | 0.00 | 0.00 | 60 | 1015.8 |
| 20260510124504 | 61 | 5 | 9.0 | 14.0 | 0.00 | 0.00 | 0.00 | 60 | 1015.8 |
| 20260510122004 | 61 | 2 | 7.0 | 18.0 | 0.00 | 0.00 | 0.00 | 61 | 1015.9 |
| 20260510121504 | 61 | 5 | 8.0 | 18.0 | 0.00 | 0.00 | 0.00 | 61 | 1016.0 |
| 20260510120504 | 61 | 347 | 7.0 | 17.0 | 0.00 | 0.00 | 0.00 | 60 | 1016.0 |
| 20260510115004 | 60 | 5 | 8.0 | 15.0 | 0.00 | 0.00 | 0.00 | 60 | 1016.2 |
| 20260510113004 | 61 | 7 | 6.0 | 16.0 | 0.00 | 0.00 | 0.00 | 60 | 1016.3 |
| 20260510112504 | 62 | 21 | 6.0 | 16.0 | 0.00 | 0.00 | 0.00 | 59 | 1016.4 |
| 20260510111503 | 60 | 55 | 6.0 | 17.0 | 0.00 | 0.00 | 0.00 | 61 | 1016.5 |
| 20260510111004 | 59 | 68 | 7.0 | 17.0 | 0.00 | 0.00 | 0.00 | 63 | 1016.6 |
| 20260510110504 | 59 | 25 | 6.0 | 15.0 | 0.00 | 0.00 | 0.00 | 64 | 1016.7 |
| 20260510105504 | 59 | 4 | 8.0 | 15.0 | 0.00 | 0.00 | 0.00 | 64 | 1016.6 |
| 20260510104004 | 59 | 34 | 5.0 | 13.0 | 0.00 | 0.00 | 0.00 | 65 | 1016.7 |
| 20260510103504 | 58 | 30 | 7.0 | 13.0 | 0.00 | 0.00 | 0.00 | 64 | 1016.8 |
| 20260510103004 | 58 | 14 | 8.0 | 14.0 | 0.00 | 0.00 | 0.00 | 64 | 1016.8 |
| 20260510102004 | 59 | 10 | 7.0 | 14.0 | 0.00 | 0.00 | 0.00 | 63 | 1016.9 |
| 20260510101004 | 59 | 14 | 8.0 | 16.0 | 0.00 | 0.00 | 0.00 | 63 | 1016.9 |
| 20260510100504 | 60 | 345 | 7.0 | 16.0 | 0.00 | 0.00 | 0.00 | 63 | 1016.9 |
| 20260510100005 | 59 | 17 | 7.0 | 16.0 | 0.00 | 0.00 | 0.00 | 63 | 1017.0 |
| 20260510095504 | 59 | 45 | 7.0 | 20.0 | 0.00 | 0.00 | 0.00 | 61 | 1017.0 |
| 20260510094004 | 60 | 349 | 7.0 | 14.0 | 0.00 | 0.00 | 0.00 | 62 | 1016.9 |
| 20260510093004 | 59 | 12 | 6.0 | 20.0 | 0.00 | 0.00 | 0.00 | 64 | 1017.1 |
| 20260510092004 | 58 | 3 | 6.0 | 16.0 | 0.00 | 0.00 | 0.00 | 64 | 1017.1 |
| 20260510090504 | 57 | 358 | 6.0 | 16.0 | 0.00 | 0.00 | 0.00 | 67 | 1017.2 |
| 20260510085504 | 56 | 10 | 6.0 | 13.0 | 0.00 | 0.00 | 0.00 | 68 | 1017.4 |
| 20260510082004 | 55 | 16 | 6.0 | 21.0 | 0.00 | 0.00 | 0.00 | 71 | 1017.4 |
| 20260510081005 | 55 | 22 | 6.0 | 14.0 | 0.00 | 0.00 | 0.00 | 70 | 1017.4 |
| 20260510080005 | 54 | 356 | 7.0 | 16.0 | 0.00 | 0.00 | 0.00 | 72 | 1017.4 |
| 20260510074004 | 53 | 16 | 9.0 | 16.0 | 0.00 | 0.00 | 0.00 | 74 | 1017.4 |
| 20260510073504 | 53 | 23 | 7.0 | 16.0 | 0.00 | 0.00 | 0.00 | 74 | 1017.4 |
| 20260510072003 | 52 | 3 | 6.0 | 12.0 | 0.00 | 0.00 | 0.00 | 77 | 1017.3 |
| 20260510071504 | 52 | 14 | 6.0 | 13.0 | 0.00 | 0.00 | 0.00 | 77 | 1017.3 |
| 20260510070004 | 51 | 7 | 7.0 | 16.0 | 0.00 | 0.00 | 0.00 | 78 | 1017.2 |
| 20260510065505 | 51 | 39 | 5.0 | 14.0 | 0.00 | 0.00 | 0.00 | 79 | 1017.2 |
| 20260510065004 | 51 | 41 | 6.0 | 14.0 | 0.00 | 0.00 | 0.00 | 80 | 1017.1 |
| 20260510063505 | 50 | 27 | 5.0 | 13.0 | 0.00 | 0.00 | 0.00 | 80 | 1017.0 |
| 20260510062504 | 50 | 11 | 4.0 | 9.0 | 0.00 | 0.00 | 0.00 | 81 | 1016.9 |
| 20260510055504 | 50 | 27 | 4.0 | 14.0 | 0.00 | 0.00 | 0.00 | 82 | 1016.9 |
| 20260510055004 | 49 | 39 | 2.0 | 14.0 | 0.00 | 0.00 | 0.00 | 83 | 1016.8 |
| 20260510054504 | 49 | 10 | 6.0 | 9.0 | 0.00 | 0.00 | 0.00 | 84 | 1016.9 |
| 20260510054004 | 49 | 22 | 5.0 | 9.0 | 0.00 | 0.00 | 0.00 | 84 | 1017.0 |
| 20260510053504 | 49 | 9 | 3.0 | 9.0 | 0.00 | 0.00 | 0.00 | 84 | 1017.0 |
| 20260510052504 | 48 | 16 | 4.0 | 12.0 | 0.00 | 0.00 | 0.00 | 85 | 1017.0 |
| 20260510051504 | 48 | 6 | 3.0 | 10.0 | 0.00 | 0.00 | 0.00 | 85 | 1017.1 |
| 20260510051004 | 48 | 358 | 3.0 | 10.0 | 0.00 | 0.00 | 0.00 | 85 | 1017.2 |
| 20260510045504 | 48 | 12 | 5.0 | 12.0 | 0.00 | 0.00 | 0.00 | 84 | 1017.1 |
| 20260510044004 | 48 | 9 | 5.0 | 10.0 | 0.00 | 0.00 | 0.00 | 83 | 1017.0 |
| 20260510042504 | 48 | 15 | 5.0 | 9.0 | 0.00 | 0.00 | 0.00 | 81 | 1017.1 |
| 20260510040004 | 49 | 353 | 3.0 | 7.0 | 0.00 | 0.00 | 0.00 | 77 | 1017.2 |
| 20260510035503 | 49 | 347 | 2.0 | 6.0 | 0.00 | 0.00 | 0.00 | 76 | 1017.2 |
| 20260510035004 | 49 | 15 | 2.0 | 6.0 | 0.00 | 0.00 | 0.00 | 75 | 1017.2 |
| 20260510034503 | 49 | 354 | 3.0 | 9.0 | 0.00 | 0.00 | 0.00 | 75 | 1017.1 |
| 20260510034004 | 50 | 354 | 3.0 | 9.0 | 0.00 | 0.00 | 0.00 | 74 | 1017.2 |
| 20260510030504 | 51 | 358 | 3.0 | 10.0 | 0.00 | 0.00 | 0.00 | 71 | 1017.3 |
| 20260510030004 | 51 | 1 | 5.0 | 10.0 | 0.00 | 0.00 | 0.00 | 71 | 1017.3 |
| 20260510025504 | 51 | 25 | 3.0 | 10.0 | 0.00 | 0.00 | 0.00 | 71 | 1017.3 |
| 20260510024004 | 52 | 7 | 5.0 | 12.0 | 0.00 | 0.00 | 0.00 | 70 | 1017.3 |
| 20260510022504 | 52 | 10 | 5.0 | 12.0 | 0.00 | 0.00 | 0.00 | 69 | 1017.2 |
| 20260510015004 | 53 | 349 | 4.0 | 9.0 | 0.00 | 0.00 | 0.00 | 65 | 1017.1 |
| 20260510013504 | 53 | 352 | 5.0 | 12.0 | 0.00 | 0.00 | 0.00 | 63 | 1017.0 |
| 20260510013004 | 54 | 348 | 3.0 | 10.0 | 0.00 | 0.00 | 0.00 | 63 | 1017.0 |
| 20260510012504 | 54 | 2 | 4.0 | 7.0 | 0.00 | 0.00 | 0.00 | 63 | 1017.0 |
| 20260510011004 | 54 | 354 | 3.0 | 7.0 | 0.00 | 0.00 | 0.00 | 64 | 1017.0 |
| 20260510004504 | 54 | 357 | 4.0 | 12.0 | 0.00 | 0.00 | 0.00 | 65 | 1017.0 |
| 20260510003505 | 55 | 344 | 5.0 | 7.0 | 0.00 | 0.00 | 0.00 | 66 | 1016.9 |
| 20260510003004 | 55 | 352 | 4.0 | 7.0 | 0.00 | 0.00 | 0.00 | 66 | 1016.9 |
| 20260510002503 | 55 | 349 | 3.0 | 7.0 | 0.00 | 0.00 | 0.00 | 67 | 1016.9 |
| 20260510001004 | 55 | 356 | 3.0 | 6.0 | 0.00 | 0.00 | 0.00 | 66 | 1017.1 |
| 20260509235504 | 56 | 353 | 2.0 | 3.0 | 0.00 | 0.00 | 0.00 | 66 | 1017.0 |
| 20260509235004 | 56 | 347 | 1.0 | 5.0 | 0.00 | 0.00 | 0.00 | 65 | 1016.9 |
| 20260509233504 | 56 | 342 | 3.0 | 6.0 | 0.00 | 0.00 | 0.00 | 65 | 1016.8 |
| 20260509233004 | 56 | 352 | 3.0 | 8.0 | 0.00 | 0.00 | 0.00 | 65 | 1016.9 |
| 20260509232004 | 56 | 353 | 4.0 | 8.0 | 0.00 | 0.00 | 0.00 | 65 | 1016.8 |
| 20260509230504 | 57 | 342 | 3.0 | 7.0 | 0.00 | 0.00 | 0.00 | 65 | 1016.7 |
| 20260509225004 | 57 | 3 | 4.0 | 9.0 | 0.00 | 0.00 | 0.00 | 65 | 1016.6 |
| 20260509224504 | 57 | 356 | 3.0 | 6.0 | 0.00 | 0.00 | 0.00 | 65 | 1016.6 |
| 20260509224004 | 57 | 341 | 2.0 | 5.0 | 0.00 | 0.00 | 0.00 | 65 | 1016.7 |
| 20260509223004 | 58 | 345 | 2.0 | 6.0 | 0.00 | 0.00 | 0.00 | 64 | 1016.5 |
| 20260509222004 | 58 | 5 | 3.0 | 7.0 | 0.00 | 0.00 | 0.00 | 63 | 1016.4 |
| 20260509221503 | 58 | 9 | 3.0 | 7.0 | 0.00 | 0.00 | 0.00 | 63 | 1016.4 |
| 20260509221003 | 58 | 357 | 3.0 | 7.0 | 0.00 | 0.00 | 0.00 | 63 | 1016.4 |
| 20260509220504 | 58 | 0 | 4.0 | 7.0 | 0.00 | 0.00 | 0.00 | 63 | 1016.4 |
| 20260509220004 | 58 | 344 | 2.0 | 6.0 | 0.00 | 0.00 | 0.00 | 63 | 1016.5 |
| 20260509215504 | 58 | 2 | 2.0 | 6.0 | 0.00 | 0.00 | 0.00 | 63 | 1016.6 |
| 20260509215003 | 59 | 337 | 2.0 | 7.0 | 0.00 | 0.00 | 0.00 | 63 | 1016.6 |
| 20260509213504 | 59 | 344 | 2.0 | 6.0 | 0.00 | 0.00 | 0.00 | 62 | 1016.5 |
| 20260509213004 | 59 | 355 | 3.0 | 7.0 | 0.00 | 0.00 | 0.00 | 62 | 1016.4 |
| 20260509211504 | 60 | 336 | 2.0 | 7.0 | 0.00 | 0.00 | 0.00 | 61 | 1016.1 |
| 20260509211004 | 60 | 348 | 3.0 | 7.0 | 0.00 | 0.00 | 0.00 | 61 | 1016.2 |
| 20260509210004 | 61 | 348 | 2.0 | 6.0 | 0.00 | 0.00 | 0.00 | 60 | 1016.1 |
| 20260509205004 | 61 | 344 | 2.0 | 5.0 | 0.00 | 0.00 | 0.00 | 60 | 1015.9 |
| 20260509204504 | 62 | 332 | 3.0 | 5.0 | 0.00 | 0.00 | 0.00 | 59 | 1015.9 |
| 20260509203504 | 62 | 338 | 3.0 | 5.0 | 0.00 | 0.00 | 0.00 | 59 | 1015.8 |
| 20260509203004 | 63 | 345 | 2.0 | 5.0 | 0.00 | 0.00 | 0.00 | 58 | 1015.8 |
| 20260509202503 | 63 | 334 | 2.0 | 5.0 | 0.00 | 0.00 | 0.00 | 58 | 1015.8 |
| 20260509201504 | 63 | 342 | 2.0 | 5.0 | 0.00 | 0.00 | 0.00 | 57 | 1015.8 |
| 20260509201004 | 64 | 340 | 2.0 | 5.0 | 0.00 | 0.00 | 0.00 | 57 | 1015.8 |
| 20260509200005 | 64 | 343 | 3.0 | 5.0 | 0.00 | 0.00 | 0.00 | 56 | 1015.7 |
| 20260509194004 | 65 | 337 | 3.0 | 6.0 | 0.00 | 0.00 | 0.00 | 55 | 1015.5 |
| 20260509193004 | 66 | 345 | 3.0 | 6.0 | 0.00 | 0.00 | 0.00 | 55 | 1015.4 |
| 20260509191504 | 66 | 0 | 2.0 | 6.0 | 0.00 | 0.00 | 0.00 | 53 | 1015.4 |
| 20260509190006 | 67 | 4 | 2.0 | 6.0 | 0.00 | 0.00 | 0.00 | 53 | 1015.2 |
| 20260509184504 | 68 | 355 | 3.0 | 8.0 | 0.00 | 0.00 | 0.00 | 50 | 1015.2 |
| 20260509184004 | 68 | 5 | 3.0 | 8.0 | 0.00 | 0.00 | 0.00 | 50 | 1015.3 |
| 20260509183506 | 68 | 13 | 5.0 | 8.0 | 0.00 | 0.00 | 0.00 | 49 | 1015.2 |
| 20260509182004 | 68 | 6 | 3.0 | 7.0 | 0.00 | 0.00 | 0.00 | 49 | 1015.2 |
| 20260509180004 | 69 | 16 | 4.0 | 9.0 | 0.00 | 0.00 | 0.00 | 49 | 1015.1 |
| 20260509174004 | 69 | 344 | 5.0 | 10.0 | 0.00 | 0.00 | 0.00 | 49 | 1015.0 |
| 20260509172004 | 69 | 8 | 4.0 | 12.0 | 0.00 | 0.00 | 0.00 | 49 | 1014.9 |
| 20260509171504 | 69 | 0 | 5.0 | 12.0 | 0.00 | 0.00 | 0.00 | 47 | 1015.0 |
| 20260509171004 | 69 | 19 | 5.0 | 12.0 | 0.00 | 0.00 | 0.00 | 47 | 1015.0 |
| 20260509170504 | 70 | 22 | 5.0 | 12.0 | 0.00 | 0.00 | 0.00 | 47 | 1015.0 |
| 20260509170004 | 70 | 356 | 6.0 | 12.0 | 0.00 | 0.00 | 0.00 | 47 | 1015.1 |
| 20260509165504 | 70 | 17 | 3.0 | 12.0 | 0.00 | 0.00 | 0.00 | 47 | 1015.1 |
| 20260509164004 | 71 | 355 | 5.0 | 12.0 | 0.00 | 0.00 | 0.00 | 48 | 1015.1 |
| 20260509163504 | 70 | 346 | 4.0 | 8.0 | 0.00 | 0.00 | 0.00 | 47 | 1015.1 |
| 20260509162504 | 70 | 11 | 4.0 | 9.0 | 0.00 | 0.00 | 0.00 | 47 | 1015.1 |
| 20260509161503 | 71 | 10 | 3.0 | 12.0 | 0.00 | 0.00 | 0.00 | 45 | 1015.2 |
| 20260509161004 | 71 | 0 | 6.0 | 12.0 | 0.00 | 0.00 | 0.00 | 43 | 1015.3 |
| 20260509160504 | 71 | 354 | 5.0 | 9.0 | 0.00 | 0.00 | 0.00 | 45 | 1015.2 |
| 20260509160004 | 71 | 17 | 5.0 | 9.0 | 0.00 | 0.00 | 0.00 | 47 | 1015.2 |
| 20260509155504 | 70 | 14 | 3.0 | 10.0 | 0.00 | 0.00 | 0.00 | 47 | 1015.2 |
| 20260509155005 | 70 | 346 | 3.0 | 10.0 | 0.00 | 0.00 | 0.00 | 46 | 1015.2 |
| 20260509154004 | 71 | 47 | 3.0 | 10.0 | 0.00 | 0.00 | 0.00 | 43 | 1015.3 |
| 20260509153504 | 71 | 22 | 5.0 | 10.0 | 0.00 | 0.00 | 0.00 | 42 | 1015.3 |
| 20260509150504 | 72 | 1 | 6.0 | 10.0 | 0.00 | 0.00 | 0.00 | 45 | 1015.6 |
| 20260509145504 | 71 | 359 | 5.0 | 10.0 | 0.00 | 0.00 | 0.00 | 47 | 1015.7 |
| 20260509144504 | 71 | 349 | 5.0 | 9.0 | 0.00 | 0.00 | 0.00 | 45 | 1015.8 |
| 20260509144004 | 71 | 56 | 3.0 | 8.0 | 0.00 | 0.00 | 0.00 | 44 | 1015.8 |